TimeCST,TemperatureF,Dew PointF,Humidity,Sea Level PressureIn,VisibilityMPH,Wind Direction,Wind SpeedMPH,Gust SpeedMPH,PrecipitationIn,Events,Conditions,WindDirDegrees,DateUTC
12:14 AM,14.0,10.4,86,30.29,7.0,East,5.8,-,N/A,Snow,Light Snow,90,2014-03-05 06:14:00
12:33 AM,14.0,10.4,86,30.29,10.0,East,5.8,-,N/A,Snow,Light Snow,90,2014-03-05 06:33:00
12:53 AM,14.0,10.4,86,30.30,10.0,East,5.8,-,N/A,,Overcast,90,2014-03-05 06:53:00
1:14 AM,14.0,10.4,86,30.30,10.0,East,5.8,-,N/A,,Overcast,100,2014-03-05 07:14:00
1:33 AM,14.0,10.4,86,30.30,10.0,East,4.6,-,N/A,,Overcast,100,2014-03-05 07:33:00
1:53 AM,14.0,10.4,86,30.30,10.0,East,4.6,-,N/A,,Overcast,90,2014-03-05 07:53:00
2:13 AM,12.2,10.4,92,30.31,10.0,East,3.5,-,N/A,,Overcast,80,2014-03-05 08:13:00
2:34 AM,12.2,8.6,85,30.31,10.0,East,4.6,-,N/A,,Overcast,80,2014-03-05 08:34:00
2:53 AM,12.2,8.6,85,30.30,10.0,East,4.6,-,N/A,,Overcast,80,2014-03-05 08:53:00
3:13 AM,10.4,6.8,85,30.31,10.0,ENE,3.5,-,N/A,Snow,Light Snow,60,2014-03-05 09:13:00
3:33 AM,6.8,3.2,85,30.31,10.0,East,5.8,-,N/A,,Clear,80,2014-03-05 09:33:00
3:53 AM,6.8,3.2,85,30.31,10.0,East,5.8,-,N/A,,Clear,90,2014-03-05 09:53:00
4:13 AM,5.0,1.4,85,30.31,10.0,East,5.8,-,N/A,,Clear,90,2014-03-05 10:13:00
4:34 AM,1.4,-2.2,85,30.32,10.0,Calm,Calm,-,N/A,,Clear,0,2014-03-05 10:34:00
4:53 AM,-0.4,-4.0,85,30.32,10.0,East,3.5,-,N/A,,Clear,90,2014-03-05 10:53:00
5:14 AM,1.4,-2.2,85,30.32,10.0,East,4.6,-,N/A,,Scattered Clouds,80,2014-03-05 11:14:00
5:33 AM,3.2,-0.4,85,30.33,10.0,Calm,Calm,-,N/A,,Mostly Cloudy,0,2014-03-05 11:33:00
5:53 AM,6.8,3.2,85,30.34,10.0,NNE,4.6,-,N/A,,Overcast,20,2014-03-05 11:53:00
6:13 AM,6.8,3.2,85,30.34,10.0,ENE,3.5,-,N/A,,Overcast,60,2014-03-05 12:13:00
6:33 AM,5.0,1.4,85,30.36,10.0,NE,3.5,-,N/A,,Scattered Clouds,40,2014-03-05 12:33:00
6:53 AM,3.2,-0.4,85,30.36,10.0,ENE,3.5,-,N/A,,Mostly Cloudy,60,2014-03-05 12:53:00
7:13 AM,6.8,3.2,85,30.37,10.0,ENE,3.5,-,N/A,,Overcast,70,2014-03-05 13:13:00
7:33 AM,8.6,6.8,92,30.38,10.0,Calm,Calm,-,N/A,,Overcast,0,2014-03-05 13:33:00
7:54 AM,10.4,6.8,85,30.39,10.0,ENE,4.6,-,N/A,,Overcast,70,2014-03-05 13:54:00
8:14 AM,12.2,6.8,79,30.39,10.0,East,5.8,-,N/A,,Overcast,90,2014-03-05 14:14:00
8:34 AM,12.2,6.8,79,30.39,10.0,East,6.9,-,N/A,,Overcast,90,2014-03-05 14:34:00
8:53 AM,14.0,6.8,73,30.39,10.0,East,8.1,-,N/A,,Overcast,100,2014-03-05 14:53:00
9:13 AM,15.8,6.8,68,30.38,10.0,ESE,6.9,-,N/A,,Overcast,110,2014-03-05 15:13:00
9:33 AM,15.8,6.8,68,30.38,10.0,ESE,8.1,-,N/A,,Overcast,110,2014-03-05 15:33:00
9:53 AM,15.8,8.6,73,30.37,10.0,SE,9.2,-,N/A,,Overcast,140,2014-03-05 15:53:00
10:13 AM,17.6,10.4,73,30.38,10.0,SSE,11.5,-,N/A,,Overcast,150,2014-03-05 16:13:00
10:34 AM,17.6,10.4,73,30.37,10.0,SE,11.5,-,N/A,,Mostly Cloudy,140,2014-03-05 16:34:00
10:53 AM,17.6,10.4,73,30.37,10.0,SE,12.7,16.1,N/A,,Mostly Cloudy,140,2014-03-05 16:53:00
11:13 AM,19.4,10.4,68,30.37,10.0,SSE,12.7,-,N/A,,Mostly Cloudy,150,2014-03-05 17:13:00
11:33 AM,19.4,10.4,68,30.37,10.0,SE,10.4,-,N/A,,Mostly Cloudy,140,2014-03-05 17:33:00
11:53 AM,19.4,12.2,74,30.36,10.0,SE,11.5,-,N/A,,Mostly Cloudy,140,2014-03-05 17:53:00
12:13 PM,21.2,12.2,68,30.36,10.0,SSE,11.5,-,N/A,,Mostly Cloudy,160,2014-03-05 18:13:00
12:33 PM,21.2,12.2,68,30.36,10.0,SSE,11.5,-,N/A,,Scattered Clouds,160,2014-03-05 18:33:00
12:54 PM,21.2,12.2,68,30.36,10.0,South,10.4,-,N/A,,Mostly Cloudy,170,2014-03-05 18:54:00
1:14 PM,24.8,14.0,64,30.36,10.0,South,12.7,16.1,N/A,,Mostly Cloudy,170,2014-03-05 19:14:00
1:33 PM,24.8,14.0,64,30.36,7.0,South,9.2,-,N/A,,Overcast,180,2014-03-05 19:33:00
1:53 PM,24.8,14.0,64,30.34,7.0,South,13.8,-,N/A,,Overcast,170,2014-03-05 19:53:00
2:13 PM,23.0,14.0,68,30.33,10.0,South,12.7,17.3,N/A,,Mostly Cloudy,170,2014-03-05 20:13:00
2:33 PM,23.0,14.0,68,30.33,10.0,South,12.7,-,N/A,,Scattered Clouds,170,2014-03-05 20:33:00
2:53 PM,23.0,14.0,68,30.33,10.0,South,12.7,-,N/A,,Clear,170,2014-03-05 20:53:00
3:13 PM,23.0,14.0,68,30.33,10.0,SSE,10.4,-,N/A,,Clear,160,2014-03-05 21:13:00
3:33 PM,23.0,14.0,68,30.32,10.0,South,11.5,-,N/A,,Clear,170,2014-03-05 21:33:00
3:53 PM,21.2,12.2,68,30.31,10.0,South,11.5,-,N/A,,Clear,170,2014-03-05 21:53:00
4:14 PM,21.2,12.2,68,30.32,10.0,South,10.4,-,N/A,,Clear,170,2014-03-05 22:14:00
4:33 PM,21.2,12.2,68,30.31,10.0,South,12.7,-,N/A,Snow,Light Snow,170,2014-03-05 22:33:00
4:53 PM,21.2,12.2,68,30.30,10.0,SSE,11.5,-,N/A,,Clear,160,2014-03-05 22:53:00
5:13 PM,19.4,12.2,74,30.29,7.0,SSE,10.4,-,N/A,,Clear,160,2014-03-05 23:13:00
5:34 PM,19.4,12.2,74,30.28,10.0,SSE,12.7,16.1,N/A,,Clear,150,2014-03-05 23:34:00
5:54 PM,17.6,12.2,79,30.27,7.0,SSE,15.0,20.7,N/A,,Clear,150,2014-03-05 23:54:00
6:14 PM,17.6,12.2,79,30.27,10.0,SSE,11.5,17.3,N/A,,Clear,150,2014-03-06 00:14:00
6:33 PM,17.6,12.2,79,30.26,10.0,SSE,13.8,-,N/A,,Clear,150,2014-03-06 00:33:00
6:53 PM,15.8,10.4,79,30.28,10.0,SSE,11.5,-,N/A,,Clear,160,2014-03-06 00:53:00
7:14 PM,15.8,10.4,79,30.28,10.0,SSE,11.5,-,N/A,,Clear,150,2014-03-06 01:14:00
7:31 PM,15.8,10.4,79,30.29,10.0,SSE,11.5,-,N/A,,Clear,160,2014-03-06 01:31:00
7:53 PM,-9999,10.4,N/A,30.26,10.0,SE,13.8,-,N/A,,Clear,140,2014-03-06 01:53:00
8:13 PM,15.8,10.4,79,30.26,10.0,SSE,12.7,-,N/A,,Clear,150,2014-03-06 02:13:00
8:34 PM,15.8,10.4,79,30.27,10.0,SSE,12.7,-,N/A,,Clear,150,2014-03-06 02:34:00
8:53 PM,15.8,10.4,79,30.25,10.0,SSE,13.8,18.4,N/A,,Clear,150,2014-03-06 02:53:00
9:13 PM,15.8,10.4,79,30.25,10.0,SSE,11.5,18.4,N/A,,Clear,150,2014-03-06 03:13:00
9:34 PM,14.0,10.4,86,30.25,10.0,SSE,10.4,-,N/A,,Clear,150,2014-03-06 03:34:00
9:53 PM,15.8,10.4,79,30.24,10.0,SSE,13.8,-,N/A,,Clear,150,2014-03-06 03:53:00
10:13 PM,15.8,10.4,79,30.23,10.0,SSE,15.0,21.9,N/A,,Clear,160,2014-03-06 04:13:00
10:34 PM,15.8,10.4,79,30.23,10.0,SSE,15.0,19.6,N/A,,Clear,160,2014-03-06 04:34:00
10:53 PM,14.0,10.4,86,30.22,10.0,SSE,12.7,-,N/A,,Clear,160,2014-03-06 04:53:00
11:13 PM,12.2,10.4,92,30.21,10.0,SSE,13.8,18.4,N/A,,Clear,160,2014-03-06 05:13:00
11:33 PM,12.2,10.4,92,30.20,7.0,SSE,12.7,19.6,N/A,,Clear,160,2014-03-06 05:33:00
11:53 PM,12.2,10.4,92,30.20,7.0,SSE,15.0,20.7,N/A,,Clear,160,2014-03-06 05:53:00